Regional Weather Roundup
Issued by NWS Northern Indiana

Home | Current Version | Previous Version | Text Only | Print | Product List | Glossary On
Versions: 1 2 3 4 5 6 7 8 9 10 11 12 13 14 15 16 17 18 19 20 21 22 23 24 25 26 27 28 29 30 31 32 33 34 35 36 37 38 39 40 41 42 43 44 45 46 47 48 49 50
000
ASUS43 KIWX 232010
RWRIWX

KIWX WEATHER ROUNDUP
NATIONAL WEATHER SERVICE NORTHERN INDIANA
300 PM EST THU NOV 23 2017

NOTE: "FAIR" INDICATES FEW OR NO CLOUDS BELOW 12,000 FEET WITH NO
SIGNIFICANT WEATHER AND/OR OBSTRUCTIONS TO VISIBILITY.

* THESE STATIONS ARE NOT UNDER NWS QUALITY CONTROL. THEY ALSO MAY NOT
  REPORT WEATHER SUCH AS PRECIPITATION OR FOG.

INZ001>027-232100-
NORTHERN INDIANA

CITY           SKY/WX    TMP DP  RH WIND       PRES   REMARKS
GARY*          SUNNY     48  21  34 S12       29.93F
VALPARAISO     SUNNY     46  25  43 S14       29.94F
MICHIGAN CITY* SUNNY     45  25  45 SW12      29.94F
LAPORTE*       SUNNY     44  25  47 SW13G20   29.94F
KNOX*          SUNNY     43  27  52 SW13      29.95S
SOUTH BEND     SUNNY     43  24  47 SW15      29.94F
GOSHEN         SUNNY     42  21  43 SW14      29.96F
MONTICELLO*    SUNNY     44  22  41 S9        29.96F
LOGANSPORT*    SUNNY     43  27  52 SW10      29.98F
ROCHESTER*     SUNNY     45  27  49 SW9       29.97F
WARSAW*        SUNNY     43  21  42 SW7       29.96F
AUBURN*        SUNNY     41  23  48 S7        29.97F
FORT WAYNE     MOSUNNY   42  23  46 SW14      29.98F
HUNTINGTON*    SUNNY     42  19  40 SW6       29.98F
PERU/GRISSOM   SUNNY     44  24  44 SW10      29.97F
MARION*        SUNNY     42  25  51 S12       29.99F HAZE

$$
INZ028>050-232100-
CENTRAL INDIANA

CITY           SKY/WX    TMP DP  RH WIND       PRES   REMARKS
LAFAYETTE      SUNNY     44  23  43 SW7       29.97F
KOKOMO*        SUNNY     44  21  40 S10       29.98F
MUNCIE*        SUNNY     45  24  43 S9        29.99F
INDIANAPOLIS   MOSUNNY   45  22  40 S12       30.00F

$$
MIZ043>046-050>051-056>058-064>065-071>073-077>080-232100-
SOUTHWEST LOWER MICHIGAN

CITY           SKY/WX    TMP DP  RH WIND       PRES   REMARKS
BATTLE CREEK   SUNNY     41  22  46 SW13      29.93F
BENTON HARBOR  SUNNY     46  21  37 S8        29.93F
COLDWATER*     SUNNY     41  18  40 SW12      29.95F
HILLSDALE*     SUNNY     37  21  52 S8        29.94F
HOLLAND        CLOUDY    43  29  57 SW16      29.93F
GRAND RAPIDS   PTSUNNY   44  27  51 SW9       29.91F
KALAMAZOO      SUNNY     42  18  37 SW12      29.93F
STURGIS*       SUNNY     40  23  50 SW13G18   29.94F
THREE RIVERS*  FAIR      42  23  46 SW8       29.95F

$$
OHZ001>008-015>018-024>025-232100-
NORTHWEST OHIO

CITY           SKY/WX    TMP DP  RH WIND       PRES   REMARKS
WAUSEON*       PTSUNNY   39  25  56 SW14      29.98F
DEFIANCE       MOSUNNY   41  23  48 S14       29.99F
FINDLAY        CLOUDY    41  25  53 SW16      29.99F
TOLEDO EXPRESS MOSUNNY   41  26  55 SW12      29.99F
TOLEDO METCALF CLOUDY    39  26  59 SW14      30.00F
LIMA           CLOUDY    39  26  59 S12       30.00F

$$
AND FOR LAKE MICHIGAN COASTAL AND OPEN LAKE BUOY OBSERVATIONS

STATION/POSITION TEMP    WIND        PRES    VSBY  WAVE
                 AIR SEA DIR/SP/G                  HT/PER
                 (F)     (DEG/KT/KT) (MB)    (MI)  (FT/S)
CALUMET HARBOR    46     180/  9/ 13 1012.5F
MICHIGAN CITY     44     210/ 13/ 15   N/A
BURNS HARBOR      45     230/ 10/ 15 1013.9F
SAINT JOSEPH      44     210/ 12/ 15 1013.5
SOUTH LAKE BUOY   40 47  260/ 14/ 16 1014.1          4/ 6

$$
&&



USA.gov is the U.S. government's official web portal to all federal, state and local government web resources and services.